Regional Weather Roundup
Issued by NWS

Home | Current Version | Previous Version | Graphics & Text | Print | Product List | Glossary On
Versions: 1 2 3 4 5 6 7 8 9 10 11 12 13 14 15 16 17 18 19 20 21 22 23 24 25 26 27 28 29 30 31 32 33 34 35 36 37 38 39 40 41 42 43 44 45 46 47 48 49 50
000
ASUS43 KMKX 190400
RWRWI

WISCONSIN REGIONAL WEATHER ROUNDUP
NATIONAL WEATHER SERVICE MILWAUKEE/SULLIVAN WI
1100 PM CDT WED OCT 18 2017

NOTE: "FAIR" INDICATES FEW OR NO CLOUDS BELOW 12,000 FEET WITH NO
SIGNIFICANT WEATHER AND/OR OBSTRUCTIONS TO VISIBILITY.

WIZ001-002-006>008-014>016-023>028-190500-
NORTHWEST WISCONSIN

CITY           SKY/WX    TMP DP  RH WIND       PRES   REMARKS
SUPERIOR ARPT  CLEAR     52  18  26 SW10G20   29.87R
ASHLAND        CLEAR     51  20  29 W8        29.87R
HAYWARD        CLOUDY    53  18  25 W8        29.92R
SIREN          CLOUDY    51  24  35 W8        29.95R
CUMBERLAND     CLOUDY    50  23  34 W13       29.96R
RICE LAKE      CLOUDY    52  24  34 W8        29.97R
CHETEK         CLOUDY    53  26  34 W8        29.95R
LADYSMITH      CLOUDY    52  26  36 W12       29.94R
EAU CLAIRE     NOT AVBL
MENOMONIE      CLOUDY    53  25  33 W8        29.97S
NEW RICHMOND   CLOUDY    50  24  35 W10G16    29.99R
OSCEOLA        CLOUDY    51  27  38 W9G16     30.01R
$$

WIZ003>005-009-010-017-018-190500-
NORTH CENTRAL WISCONSIN

CITY           SKY/WX    TMP DP  RH WIND       PRES   REMARKS
MANITOWISH WTR CLEAR     51  24  33 W8        29.85R
ARBOR VITAE    CLEAR     57  24  28 W12G20    29.86R
WOODRUFF       CLEAR     57  24  28 W12G20    29.86R
RHINELANDER    CLOUDY    54  30  40 W13       29.88R
EAGLE RIVER    CLOUDY    55  21  26 W12G22    29.84R
LAND O LAKES   CLEAR     55  28  34 W5        29.85R
PHILLIPS       CLOUDY    53  21  29 W5        29.89R
TOMAHAWK       CLEAR     54  23  29 W8G17     29.89R
MEDFORD        CLOUDY    54  25  32 W13G21    29.91R
MERRILL        PTCLDY    57  33  40 W12G20    29.89R
$$

WIZ029-030-035-036-043>047-190500-
CENTRAL WISCONSIN

CITY           SKY/WX    TMP DP  RH WIND       PRES   REMARKS
WAUSAU         PTCLDY    57  37  47 W16G26    29.89R
MOSINEE        CLEAR     57  41  54 W13       29.91R
MARSHFIELD     CLEAR     56  33  42 W15G21    29.94R
STEVENS POINT  CLEAR     58  44  58 W8        29.90R
WAUPACA        CLOUDY    60  47  63 SW7       29.89S
WAUTOMA        CLOUDY    59  47  64 SW7       29.92S
WISC RAPIDS    CLOUDY    59  43  55 W9        29.94R
CAMP DOUGLAS   NOT AVBL
$$

WIZ011>013-019>022-031-037>040-048>050-190500-
NORTHEAST WISCONSIN

CITY           SKY/WX    TMP DP  RH WIND       PRES   REMARKS
ANTIGO         CLEAR     56  44  62 W14       29.88R
SHAWANO        PTCLDY    62  47  58 SW6       29.84F
OCONTO         CLOUDY    62  46  55 SW10      29.83F
STURGEON BAY   CLEAR     64  46  52 SW15G24   29.84R
GREEN BAY      CLOUDY    61  47  59 SW12      29.87S
MANITOWOC      CLEAR     64  45  49 SW17G24   29.88F
APPLETON       PTCLDY    61  43  51 SW13      29.88S
CLINTONVILLE   NOT AVBL
OSHKOSH        CLOUDY    60  46  59 SW13      29.90S
$$

WIZ032>034-041-042-053>061-190500-
SOUTHWEST WISCONSIN

CITY           SKY/WX    TMP DP  RH WIND       PRES   REMARKS
LA CROSSE      CLEAR     60  35  39 NW9       29.98R
SPARTA         CLEAR     58  40  50 W6        29.96R
VIROQUA        CLEAR     58  47  68 W7        29.97S
BOSCOBEL       CLEAR     56  48  74 W3        29.98R
PRAIRIE DU CHI PTCLDY    59  46  61 CALM      29.99R
PLATTEVILLE    CLEAR     55  48  77 SW8       30.00F
$$

WIZ056-057-062-063-064-067-068-190500-
SOUTH CENTRAL WISCONSIN

CITY           SKY/WX    TMP DP  RH WIND       PRES   REMARKS
REEDSBURG      CLEAR     61  47  60 SW12      29.95S
BARABOO/DELLS  CLEAR     60  45  57 SW10G17   29.95S
LONE ROCK      NOT AVBL
MINERAL POINT  CLEAR     57  48  72 S7        30.00S
MADISON        CLEAR     61  46  57 SW7       29.97F
MIDDLETON      CLEAR     63  45  52 SW14      29.98S
WATERTOWN      CLEAR     58  46  65 SW8       29.98S
MONROE         CLEAR     55  45  67 SW14      30.00S
JANESVILLE     CLEAR     59  43  55 S8        30.01S
$$

WIZ051-052-058>065-066-070>072-190500-
SOUTHEAST WISCONSIN

CITY           SKY/WX    TMP DP  RH WIND       PRES   REMARKS
MILWAUKEE      PTCLDY    62  44  51 SW16      29.99F
WAUKESHA       CLEAR     59  41  51 SW15      30.00
MILWAUKEE/TIMM CLEAR     61  37  41 SW18G28   29.98F
RACINE         PTCLDY    62  44  51 SW13G21   30.01F
BURLINGTON     CLEAR     57  46  64 SW12      30.01S
KENOSHA        CLEAR     62  43  49 SW12G21   30.01F
FOND DU LAC    CLEAR     60  43  53 SW14      29.92F
SHEBOYGAN      CLEAR     62  45  53 SW15G22   29.92F
WEST BEND      CLEAR     61  41  48 SW13G22   29.96S
JUNEAU         CLEAR     56  45  65 S10       29.97S
$$

LSZ147-162-190500-
LAKE SUPERIOR

STATION/POSITION TIME  TEMP    WIND        PRES    WAVE
                       AIR SEA DIR/SP/G            HT/PER
                 (UTC) (F)     (DEG/KT/KT) (MB)    (FT/S)
W MID LAKE BUOY  0250   57 53              1007.0R   6/ 6
DEVILS ISLAND    0300   57     260/ 26/ 33 1009.1R
SAXON HARBOR     0340   56     220/  5/  6 1010.5R
$$

LMZ867-665-643>646-190500-
LAKE MICHIGAN

STATION/POSITION TIME  TEMP    WIND        PRES    WAVE
                       AIR SEA DIR/SP/G            HT/PER
                 (UTC) (F)     (DEG/KT/KT) (MB)    (FT/S)
S GREEN BAY BUOY 0300   62 58  210/ 19/ 25 1010.1
N MID LAKE BUOY  0250   62 59  200/ 25/ 29 1009.3R  13/ 8
NORTHPORT PIER   0340   65     220/  6/ 16 1009.5S
KEWAUNEE LAKESHO 0330   64     220/ 13/ 18 1010.6F
SHEBOYGAN LAKESH 0300   64     210/ 16/ 19 1013.0F
PORT WASHINGTON  0330   64     230/  7/ 16 1014.9F
ATWATER BUOY     0239   62 52  220/ 14/ 17 1015.3R
MILWAUKEE LAKESH 0330   63     230/ 16/ 19   N/A
S MID LAKE BUOY  0250   63 61  230/ 19/ 21 1016.3R   4/ 5
KENOSHA   LAKESH 0300   63     220/ 11/ 16 1016.3
$$

TC  - TEMPERATURE IN CELSIUS
VSB - VISIBILITY IN STATUTE MILES
WCI - WIND CHILL INDEX
HX  - HEAT INDEX




USA.gov is the U.S. government's official web portal to all federal, state and local government web resources and services.